Location: G?julap?du
(16.5372°N, 81.0979°E)
Time: 10:56:57
(UTC+00:00)

NATO 3D Rocket - Pass Details

Date: 14 April 2026
Orbit: 670 x 2292 km, 21.5° (Epoch: 20 May)

Event Time Altitude Azimuth Distance (km) Brightness Sun altitude
Rises 13:03:59 0° 281° (W) 3,051 10.0 -3.9°
Reaches altitude 10° 13:06:10 10° 278° (W) 2,205 7.9 -4.4°
Maximum altitude 13:11:12 65° 197° (SSW) 925 4.0 -5.6°
Drops below altitude 10° 13:17:56 10° 116° (ESE) 2,928 5.9 -7.2°
Enters shadow 13:18:42 - 115° (ESE) 3,208 6.1 -7.4°
